STARLINK-11330, 62011

Orbit data source: Space-Track

STARLINK-11330, 62011 is a payload satellite owned by SpaceX/Seattle (US) in LEO that was launched on Mon, 18 Nov 2024 UTC via an FALCON 9 launch vehicle from the Air Force Western Test Range (AFWTR). Payload-class satellites include a variety of spacecraft equipped with specific instruments for various scientific and technological missions. These include communications satellites like Starlink; space stations such as the ISS; scientific satellites like the Hubble; Earth observation satellites from companies like Planet Labs, Umbra, and HawkEye 360; GPS; miniature CubeSats for education and research; and military/defense satellites.

Loading next visibility...
Identifier
62011, 2024-213D
Orbit
LEO
Country
Flag of USUS
Related business
Manufacturer
SpaceX/Seattle
Mission
Operational Commercial Communications
Bus & Motor
STARLINK V2MD, Unknown motor
Mass
960 kg wet, ~910 kg dry
Launch date (UTC)
2024-11-18 (11 months ago)
Launch vehicle
FALCON 9
Launch site
Air Force Western Test Range (AFWTR)
Object type
Payload
Rocket body
Debris
Shape & HBR
Box + 2 Pan, 18.1 m
Radar Cross Section
36.964 m², Large (>1 m²)

Expand to show TLE details & history
Last TLE update: 19 hours ago

TLE from 19 hours ago
0 STARLINK-11330
1 62011U 24213D   25287.57834607  .00144646  00000-0  11755-2 0  9992
2 62011  53.1567  41.7666 0001261  98.9420 261.1741 15.69763340 51968
Epoch: 2025-10-14T13:52Z
TLE epoch observation values (Epoch: 2025-10-14T13:52:49.100Z)
Latitude
0.00001°
Longitude
170.19726°
Altitude
360.619 km
Speed
7.694 km/s
True Right ascension
02h 47m 03s
True Declination
0° 00' 00"
Sunlit
Object was in full shadow at epoch
Visualization orbit readout
Latitude
Unknown
Longitude
Unknown
Altitude
Unknown
Speed
Unknown
Apparent Right ascension
Unknown
Apparent Declination
Unknown
Sunlit
N/A
Visualization observer readout
Local Sidereal Time
03:52:51
Azimuth
Unknown
Elevation
Unknown
Doppler factor
Unknown
Orbital elements
Apogee altitude
360.685 km
Perigee altitude
358.986 km
Semi-major axis
6,737.972 km
Eccentricity
0.00013
Inclination
53.1567°
RAAN
41.7666°
Arg. of periapsis
98.942°
True anomaly
261.15982°
Mean anomaly
261.1741°
Eccentric anomaly
261.16696°
Mean motion
3.92418 °/min
Orbital period
91.74 mins
BSTAR
0.0011755
Loading maneuver chart data...
Computing Atmospheric mass density...
Loading historical data...
Loading historical data...
Loading historical data...
Loading historical data...
Loading historical data...
Loading historical data...
Loading historical data...

Documentation

Showing up to 5 results
|